CW3956 Weather Reports


time (UTC)temp
C
wind
direction
speed
KPH
gust
KPH
rain 1hr
cm
rain 24hr
cm
rain mn
cm
humidity
%
barometer
mb
20260906231504 36 216 3.2 8.0 0.00 0.00 0.00 42 1011.7
20260906231004 36 170 1.6 4.8 0.00 0.00 0.00 41 1011.6
20260906230504 36 103 1.6 4.8 0.00 0.00 0.00 41 1011.7
20260906230009 36 169 1.6 17.7 0.00 0.00 0.00 40 1011.6
20260906225503 36 148 1.6 17.7 0.00 0.00 0.00 40 1011.6
20260906225004 36 227 1.6 12.9 0.00 0.00 0.00 41 1011.6
20260906224507 36 202 3.2 8.0 0.00 0.00 0.00 41 1011.6
20260906224003 36 225 1.6 4.8 0.00 0.00 0.00 41 1011.7
20260906223503 36 163 1.6 12.9 0.00 0.00 0.00 41 1011.8
20260906223012 36 225 3.2 12.9 0.00 0.00 0.00 40 1011.8
20260906222503 36 134 1.6 9.7 0.00 0.00 0.00 39 1011.8
20260906222004 36 192 1.6 9.7 0.00 0.00 0.00 41 1011.8
20260906221507 36 182 1.6 8.0 0.00 0.00 0.00 40 1011.8
20260906221004 36 60 1.6 6.4 0.00 0.00 0.00 39 1011.8
20260906220504 36 177 1.6 6.4 0.00 0.00 0.00 39 1011.9
20260906220024 36 130 3.2 8.0 0.00 0.00 0.00 39 1011.7
20260906215504 36 128 0.0 8.0 0.00 0.00 0.00 40 1011.7
20260906215004 36 5 1.6 8.0 0.00 0.00 0.00 40 1011.8
20260906214517 36 46 3.2 8.0 0.00 0.00 0.00 40 1011.9
20260906214004 36 124 1.6 6.4 0.00 0.00 0.00 39 1012.0
20260906213506 37 29 1.6 8.0 0.00 0.00 0.00 38 1012.0
20260906213012 37 56 1.6 8.0 0.00 0.00 0.00 38 1012.0
20260906212504 37 138 1.6 6.4 0.00 0.00 0.00 37 1012.1
20260906212004 37 190 3.2 6.4 0.00 0.00 0.00 38 1012.1
20260906211511 37 153 1.6 14.5 0.00 0.00 0.00 38 1012.2
20260906211005 37 136 1.6 14.5 0.00 0.00 0.00 38 1012.3
20260906210507 37 49 3.2 16.1 0.00 0.00 0.00 37 1012.4
20260906210013 37 153 3.2 16.1 0.00 0.00 0.00 38 1012.5
20260906205505 37 121 1.6 8.0 0.00 0.00 0.00 39 1012.5
20260906205004 37 84 1.6 8.0 0.00 0.00 0.00 38 1012.6
20260906204511 37 82 1.6 8.0 0.00 0.00 0.00 37 1012.7
20260906204017 37 137 3.2 6.4 0.00 0.00 0.00 38 1012.8
20260906203510 37 138 3.2 4.8 0.00 0.00 0.00 39 1012.9
20260906203028 37 177 1.6 4.8 0.00 0.00 0.00 39 1012.9
20260906202513 37 83 1.6 8.0 0.00 0.00 0.00 38 1012.9
20260906202015 37 229 1.6 9.7 0.00 0.00 0.00 40 1013.1
20260906201528 37 178 3.2 9.7 0.00 0.00 0.00 40 1013.1
20260906201016 37 146 3.2 9.7 0.00 0.00 0.00 40 1013.1
20260906200518 36 151 3.2 9.7 0.00 0.00 0.00 40 1013.1
20260906200031 36 150 1.6 8.0 0.00 0.00 0.00 41 1013.2
20260906195515 36 30 1.6 8.0 0.00 0.00 0.00 41 1013.3
20260906195015 36 179 1.6 6.4 0.00 0.00 0.00 41 1013.4
20260906194540 37 146 1.6 8.0 0.00 0.00 0.00 41 1013.4
20260906194019 37 223 3.2 8.0 0.00 0.00 0.00 41 1013.4
20260906193516 37 160 1.6 12.9 0.00 0.00 0.00 43 1013.5
20260906193034 36 105 3.2 12.9 0.00 0.00 0.00 42 1013.6
20260906192516 36 124 3.2 11.3 0.00 0.00 0.00 43 1013.4
20260906192013 36 198 1.6 9.7 0.00 0.00 0.00 44 1013.6
20260906191529 36 146 1.6 9.7 0.00 0.00 0.00 44 1013.7
20260906191014 36 180 1.6 8.0 0.00 0.00 0.00 44 1013.8
20260906190515 36 136 3.2 9.7 0.00 0.00 0.00 44 1013.9
20260906190032 36 199 3.2 17.7 0.00 0.00 0.00 44 1013.9
20260906185520 36 149 1.6 17.7 0.00 0.00 0.00 44 1014.0
20260906185016 36 204 3.2 16.1 0.00 0.00 0.00 43 1014.0
20260906184543 36 158 4.8 16.1 0.00 0.00 0.00 44 1014.1
20260906184019 36 108 3.2 8.0 0.00 0.00 0.00 44 1014.2
20260906183515 36 273 1.6 11.3 0.00 0.00 0.00 45 1014.2
20260906183036 36 285 0.0 11.3 0.00 0.00 0.00 45 1014.2
20260906182516 36 85 1.6 12.9 0.00 0.00 0.00 45 1014.2
20260906182021 36 74 4.8 12.9 0.00 0.00 0.00 45 1014.3
20260906181553 36 149 3.2 9.7 0.00 0.00 0.00 45 1014.4
20260906181019 36 154 3.2 9.7 0.00 0.00 0.00 46 1014.6
20260906180513 36 314 1.6 6.4 0.00 0.00 0.00 46 1014.6
20260906180029 36 144 1.6 6.4 0.00 0.00 0.00 45 1014.6
20260906175518 36 40 3.2 6.4 0.00 0.00 0.00 47 1014.7
20260906175018 35 57 1.6 9.7 0.00 0.00 0.00 46 1014.7
20260906174536 35 188 3.2 8.0 0.00 0.00 0.00 47 1014.8
20260906174004 35 158 3.2 8.0 0.00 0.00 0.00 46 1014.9
20260906173504 35 36 1.6 6.4 0.00 0.00 0.00 48 1015.0
20260906173018 35 96 1.6 8.0 0.00 0.00 0.00 48 1015.2
20260906172507 34 144 3.2 8.0 0.00 0.00 0.00 48 1015.3
20260906172010 35 155 1.6 12.9 0.00 0.00 0.00 48 1015.4
20260906171529 35 204 4.8 12.9 0.00 0.00 0.00 50 1015.4
20260906171009 35 156 1.6 6.4 0.00 0.00 0.00 51 1015.4
20260906170504 34 78 3.2 9.7 0.00 0.00 0.00 51 1015.3
20260906170009 34 49 3.2 9.7 0.00 0.00 0.00 51 1015.3
20260906165502 34 237 3.2 12.9 0.00 0.00 0.00 52 1015.4
20260906165003 34 53 1.6 12.9 0.00 0.00 0.00 51 1015.4
20260906164508 33 224 3.2 6.4 0.00 0.00 0.00 52 1015.4
20260906164006 33 232 1.6 8.0 0.00 0.00 0.00 53 1015.4
20260906163504 33 84 1.6 8.0 0.00 0.00 0.00 53 1015.5
20260906163020 33 234 1.6 12.9 0.00 0.00 0.00 54 1015.4
20260906162514 33 159 3.2 12.9 0.00 0.00 0.00 54 1015.4
20260906162007 33 44 0.0 9.7 0.00 0.00 0.00 56 1015.3
20260906161518 33 156 1.6 8.0 0.00 0.00 0.00 57 1015.3
20260906161010 32 161 3.2 8.0 0.00 0.00 0.00 57 1015.2
20260906160513 32 187 1.6 6.4 0.00 0.00 0.00 59 1015.2
20260906160028 32 51 3.2 8.0 0.00 0.00 0.00 58 1015.3
20260906155512 32 59 3.2 8.0 0.00 0.00 0.00 60 1015.4
20260906155003 32 163 0.0 6.4 0.00 0.00 0.00 61 1015.4
20260906154504 31 55 1.6 6.4 0.00 0.00 0.00 62 1015.4
20260906154006 31 161 3.2 6.4 0.00 0.00 0.00 65 1015.4
20260906153506 31 52 0.0 6.4 0.00 0.00 0.00 65 1015.4
20260906153010 31 158 1.6 6.4 0.00 0.00 0.00 66 1015.3
20260906152503 31 49 1.6 6.4 0.00 0.00 0.00 66 1015.2
20260906152006 30 62 4.8 6.4 0.00 0.00 0.00 67 1015.3
20260906151517 30 142 1.6 4.8 0.00 0.00 0.00 68 1015.2
20260906151010 30 59 0.0 8.0 0.00 0.00 0.00 69 1015.2
20260906150510 30 42 1.6 8.0 0.00 0.00 0.00 69 1015.1
20260906150029 30 163 0.0 3.2 0.00 0.00 0.00 70 1015.2
20260906145513 29 39 1.6 3.2 0.00 0.00 0.00 71 1015.1
20260906145012 29 156 0.0 3.2 0.00 0.00 0.00 73 1015.2
20260906144528 28 55 0.0 3.2 0.00 0.00 0.00 73 1015.2
20260906144011 28 177 0.0 3.2 0.00 0.00 0.00 74 1015.2
20260906143503 28 122 0.0 3.2 0.00 0.00 0.00 75 1015.1
20260906143007 28 49 1.6 3.2 0.00 0.00 0.00 76 1015.2
20260906142503 28 64 0.0 3.2 0.00 0.00 0.00 77 1015.3
20260906142008 27 225 1.6 3.2 0.00 0.00 0.00 78 1015.4
20260906141515 27 164 0.0 3.2 0.00 0.00 0.00 78 1015.3
20260906141011 27 160 0.0 3.2 0.00 0.00 0.00 79 1015.2
20260906140507 27 80 0.0 4.8 0.00 0.00 0.00 80 1015.1
20260906140022 27 48 1.6 4.8 0.00 0.00 0.00 80 1015.0
20260906135511 27 53 0.0 3.2 0.00 0.00 0.00 81 1015.0
20260906135012 26 36 0.0 4.8 0.00 0.00 0.00 82 1015.0
20260906134527 26 46 1.6 3.2 0.00 0.00 0.00 82 1014.9
20260906134016 26 44 0.0 3.2 0.00 0.00 0.00 83 1014.9
20260906133511 26 44 0.0 3.2 0.00 0.00 0.00 84 1015.0
20260906133036 26 51 0.0 3.2 0.00 0.00 0.00 84 1014.9
20260906132515 26 210 0.0 3.2 0.00 0.00 0.00 85 1015.0
20260906132004 25 210 0.0 3.2 0.00 0.00 0.00 86 1014.9
20260906131512 25 210 0.0 1.6 0.00 0.00 0.00 86 1014.9
20260906131005 25 210 0.0 1.6 0.00 0.00 0.00 86 1014.8
20260906130507 25 210 0.0 1.6 0.00 0.00 0.00 86 1014.7
20260906130018 25 210 0.0 0.0 0.00 0.00 0.00 86 1014.8
20260906125513 25 210 0.0 0.0 0.00 0.00 0.00 86 1014.7
20260906125011 25 210 0.0 0.0 0.00 0.00 0.00 86 1014.7
20260906124526 25 210 0.0 0.0 0.00 0.00 0.00 86 1014.7
20260906124011 25 210 0.0 0.0 0.00 0.00 0.00 86 1014.7
20260906123511 25 210 0.0 0.0 0.00 0.00 0.00 85 1014.6
20260906123033 25 210 0.0 0.0 0.00 0.00 0.00 85 1014.5
20260906122516 25 210 0.0 0.0 0.00 0.00 0.00 85 1014.5
20260906122018 25 210 0.0 0.0 0.00 0.00 0.00 84 1014.5
20260906121532 25 210 0.0 0.0 0.00 0.00 0.00 84 1014.5
20260906121015 25 210 0.0 0.0 0.00 0.00 0.00 85 1014.4
20260906120510 25 210 0.0 0.0 0.00 0.00 0.00 84 1014.3
20260906120015 25 210 0.0 0.0 0.00 0.00 0.00 84 1014.3
20260906115507 25 210 0.0 0.0 0.00 0.00 0.00 84 1014.3
20260906115011 25 210 0.0 0.0 0.00 0.00 0.00 84 1014.3
20260906114534 25 210 0.0 0.0 0.00 0.00 0.00 84 1014.3
20260906114012 25 210 0.0 0.0 0.00 0.00 0.00 84 1014.3
20260906113510 25 210 0.0 0.0 0.00 0.00 0.00 84 1014.2
20260906113027 25 210 0.0 0.0 0.00 0.00 0.00 84 1014.0
20260906112512 25 210 0.0 0.0 0.00 0.00 0.00 83 1014.0
20260906112014 25 210 0.0 0.0 0.00 0.00 0.00 82 1014.1
20260906111531 25 210 0.0 0.0 0.00 0.00 0.00 83 1014.0
20260906111015 25 210 0.0 0.0 0.00 0.00 0.00 82 1014.1
20260906110518 25 210 0.0 0.0 0.00 0.00 0.00 82 1014.0
20260906110034 25 210 0.0 0.0 0.00 0.00 0.00 82 1013.9
20260906105517 25 210 0.0 0.0 0.00 0.00 0.00 82 1013.9
20260906105007 25 210 0.0 0.0 0.00 0.00 0.00 82 1013.9
20260906104535 25 210 0.0 0.0 0.00 0.00 0.00 81 1013.8
20260906104008 25 210 0.0 0.0 0.00 0.00 0.00 81 1013.8
20260906103511 26 210 0.0 0.0 0.00 0.00 0.00 81 1013.9
20260906103026 26 210 0.0 0.0 0.00 0.00 0.00 81 1013.9
20260906102511 26 210 0.0 0.0 0.00 0.00 0.00 81 1013.9
20260906102016 26 210 0.0 0.0 0.00 0.00 0.00 81 1013.7
20260906101529 26 210 0.0 0.0 0.00 0.00 0.00 80 1013.7
20260906101018 26 210 0.0 0.0 0.00 0.00 0.00 80 1013.7
20260906100518 26 210 0.0 0.0 0.00 0.00 0.00 80 1013.6
20260906100032 26 210 0.0 0.0 0.00 0.00 0.00 80 1013.7
20260906095520 26 210 0.0 0.0 0.00 0.00 0.00 80 1013.7
20260906095017 26 210 0.0 0.0 0.00 0.00 0.00 80 1013.6
20260906094531 26 210 0.0 0.0 0.00 0.00 0.00 80 1013.6
20260906094008 26 210 0.0 0.0 0.00 0.00 0.00 79 1013.5
20260906093508 26 210 0.0 0.0 0.00 0.00 0.00 79 1013.4
20260906093023 26 210 0.0 0.0 0.00 0.00 0.00 79 1013.3
20260906092512 26 210 0.0 0.0 0.00 0.00 0.00 79 1013.3
20260906092011 26 210 0.0 0.0 0.00 0.00 0.00 79 1013.2
20260906091534 26 210 0.0 0.0 0.00 0.00 0.00 79 1013.2
20260906091015 26 210 0.0 3.2 0.00 0.00 0.00 79 1013.1
20260906090515 26 211 0.0 6.4 0.00 0.00 0.00 79 1013.1
20260906090033 26 210 0.0 6.4 0.00 0.00 0.00 79 1013.1
20260906085519 26 220 0.0 3.2 0.00 0.00 0.00 79 1013.1
20260906085016 26 220 0.0 3.2 0.00 0.00 0.00 79 1013.1
20260906084536 27 212 0.0 3.2 0.00 0.00 0.00 78 1013.1
20260906084009 27 212 0.0 3.2 0.00 0.00 0.00 78 1013.1
20260906083506 27 208 0.0 3.2 0.00 0.00 0.00 78 1013.1
20260906083025 27 225 0.0 3.2 0.00 0.00 0.00 78 1013.1
20260906082510 27 232 0.0 3.2 0.00 0.00 0.00 78 1013.1
20260906082013 27 202 0.0 3.2 0.00 0.00 0.00 77 1013.1
20260906081538 27 213 0.0 3.2 0.00 0.00 0.00 77 1013.1
20260906081004 27 213 0.0 3.2 0.00 0.00 0.00 77 1013.1
20260906080504 27 213 0.0 3.2 0.00 0.00 0.00 76 1013.1
20260906080006 27 230 0.0 3.2 0.00 0.00 0.00 76 1013.3
20260906075504 27 230 0.0 4.8 0.00 0.00 0.00 76 1013.3
20260906075005 27 234 0.0 4.8 0.00 0.00 0.00 76 1013.3
20260906074510 27 229 0.0 3.2 0.00 0.00 0.00 76 1013.3
20260906074006 27 229 0.0 3.2 0.00 0.00 0.00 75 1013.3
20260906073509 27 229 0.0 3.2 0.00 0.00 0.00 75 1013.3
20260906073019 27 229 0.0 3.2 0.00 0.00 0.00 74 1013.3
20260906072508 27 229 0.0 3.2 0.00 0.00 0.00 74 1013.3
20260906072010 27 229 0.0 3.2 0.00 0.00 0.00 74 1013.2
20260906071531 27 229 0.0 4.8 0.00 0.00 0.00 74 1013.2
20260906071012 27 229 1.6 6.4 0.00 0.00 0.00 73 1013.3
20260906070514 27 212 0.0 6.4 0.00 0.00 0.00 73 1013.3
20260906070030 28 219 0.0 6.4 0.00 0.00 0.00 73 1013.4
20260906065504 28 209 0.0 4.8 0.00 0.00 0.00 73 1013.4
20260906065004 28 209 0.0 6.4 0.00 0.00 0.00 72 1013.5
20260906064520 28 219 1.6 6.4 0.00 0.00 0.00 72 1013.5
20260906064006 28 229 1.6 6.4 0.00 0.00 0.00 72 1013.5
20260906063504 28 220 0.0 4.8 0.00 0.00 0.00 71 1013.5
20260906063014 28 195 1.6 4.8 0.00 0.00 0.00 71 1013.5
20260906062507 28 238 1.6 6.4 0.00 0.00 0.00 70 1013.5
20260906062008 28 209 1.6 8.0 0.00 0.00 0.00 70 1013.4
20260906061526 28 174 0.0 8.0 0.00 0.00 0.00 70 1013.4
20260906061011 28 219 1.6 3.2 0.00 0.00 0.00 69 1013.5
20260906060513 28 171 0.0 3.2 0.00 0.00 0.00 69 1013.6
20260906060034 28 212 1.6 3.2 0.00 0.00 0.00 68 1013.6
20260906055513 28 207 0.0 3.2 0.00 0.00 0.00 68 1013.6
20260906055020 28 229 0.0 3.2 0.00 0.00 0.00 67 1013.5
20260906054530 28 229 0.0 3.2 0.00 0.00 0.00 67 1013.5
20260906054016 28 193 0.0 3.2 0.00 0.00 0.00 67 1013.5
20260906053520 28 206 0.0 3.2 0.00 0.00 0.00 66 1013.6
20260906053037 28 174 0.0 3.2 0.00 0.00 0.00 66 1013.5
20260906052517 28 159 0.0 3.2 0.00 0.00 0.00 66 1013.5
20260906052019 28 232 0.0 8.0 0.00 0.00 0.00 65 1013.5
20260906051534 29 213 3.2 8.0 0.00 0.00 0.00 65 1013.4
20260906051012 29 219 1.6 8.0 0.00 0.00 0.00 64 1013.4
20260906050511 29 244 3.2 8.0 0.00 0.00 0.00 64 1013.4
20260906050026 29 229 1.6 8.0 0.00 0.00 0.00 64 1013.5
20260906045516 29 214 1.6 6.4 0.00 0.00 0.00 64 1013.5
20260906045015 29 206 1.6 9.7 0.00 0.00 0.00 64 1013.4
20260906044532 29 192 3.2 9.7 0.00 0.00 0.00 64 1013.4
20260906044019 29 177 1.6 8.0 0.00 0.00 0.00 65 1013.4
20260906043518 29 217 0.0 4.8 0.00 0.00 0.00 65 1013.5
20260906043038 29 173 0.0 4.8 0.00 0.00 0.00 65 1013.3
20260906042515 29 229 0.0 3.2 0.00 0.00 0.00 65 1013.4
20260906042016 29 199 0.0 4.8 0.00 0.00 0.00 64 1013.4
20260906041536 30 199 0.0 4.8 0.00 0.00 0.00 64 1013.4
20260906041018 30 190 1.6 3.2 0.00 0.00 0.00 64 1013.4
20260906040521 30 171 1.6 6.4 0.00 0.00 0.00 64 1013.4
20260906040037 30 167 1.6 6.4 0.00 0.00 0.00 64 1013.4
20260906035515 30 209 1.6 3.2 0.00 0.00 0.00 64 1013.5
20260906035014 30 209 1.6 4.8 0.00 0.00 0.00 64 1013.4
20260906034532 30 111 1.6 4.8 0.00 0.00 0.00 64 1013.4
20260906034015 30 213 1.6 8.0 0.00 0.00 0.00 63 1013.5
20260906033516 30 194 1.6 8.0 0.00 0.00 0.00 63 1013.5
20260906033035 30 229 0.0 4.8 0.00 0.00 0.00 63 1013.5
20260906032515 30 217 1.6 6.4 0.00 0.00 0.00 63 1013.5
20260906032022 30 159 1.6 8.0 0.00 0.00 0.00 62 1013.5
20260906031603 30 175 1.6 8.0 0.00 0.00 0.00 62 1013.6
20260906031019 30 225 1.6 8.0 0.00 0.00 0.00 62 1013.6
20260906030520 30 233 1.6 8.0 0.00 0.00 0.00 62 1013.5
20260906030037 30 238 1.6 4.8 0.00 0.00 0.00 62 1013.5
20260906025521 30 208 0.0 3.2 0.00 0.00 0.00 62 1013.6
20260906025016 30 143 1.6 3.2 0.00 0.00 0.00 61 1013.6
20260906024543 30 175 1.6 4.8 0.00 0.00 0.00 61 1013.5
20260906024003 30 182 0.0 4.8 0.00 0.00 0.00 61 1013.5
20260906023503 30 200 1.6 4.8 0.00 0.00 0.00 60 1013.4
20260906023007 30 161 1.6 8.0 0.00 0.00 0.00 60 1013.2
20260906022505 30 262 0.0 8.0 0.00 0.00 0.00 60 1013.2
20260906022004 30 165 0.0 6.4 0.00 0.00 0.00 59 1013.1
20260906021515 30 172 1.6 12.9 0.00 0.00 0.00 59 1013.1
20260906021005 30 180 1.6 9.7 0.00 0.00 0.00 59 1013.1
20260906020507 30 257 1.6 4.8 0.00 0.00 0.00 59 1012.9
20260906020016 31 200 1.6 6.4 0.00 0.00 0.00 58 1012.8
20260906015508 31 146 3.2 6.4 0.00 0.00 0.00 58 1012.8
20260906015012 31 178 1.6 8.0 0.00 0.00 0.00 58 1012.8
20260906014526 31 244 3.2 8.0 0.00 0.00 0.00 57 1012.7
20260906014003 31 141 1.6 8.0 0.00 0.00 0.00 57 1012.8
20260906013504 31 148 1.6 8.0 0.00 0.00 0.00 56 1012.6
20260906013007 31 203 1.6 8.0 0.00 0.00 0.00 56 1012.3
20260906012503 31 178 1.6 6.4 0.00 0.00 0.00 55 1012.2
20260906012008 32 181 3.2 6.4 0.00 0.00 0.00 54 1012.2
20260906011509 32 143 1.6 8.0 0.00 0.00 0.00 53 1012.0
20260906011017 32 176 1.6 8.0 0.00 0.00 0.00 52 1011.9
20260906010505 33 117 1.6 11.3 0.00 0.00 0.00 51 1011.9
20260906010014 33 28 4.8 11.3 0.00 0.00 0.00 50 1011.9
20260906005507 33 163 4.8 8.0 0.00 0.00 0.00 49 1011.7
20260906005008 33 165 1.6 9.7 0.00 0.00 0.00 49 1011.6
20260906004521 34 180 3.2 12.9 0.00 0.00 0.00 48 1011.7
20260906004013 34 134 3.2 12.9 0.00 0.00 0.00 47 1011.6
20260906003510 35 128 1.6 8.0 0.00 0.00 0.00 45 1011.6
20260906003030 35 47 1.6 4.8 0.00 0.00 0.00 44 1011.5
20260906002504 35 189 1.6 4.8 0.00 0.00 0.00 43 1011.5
20260906002004 35 199 0.0 4.8 0.00 0.00 0.00 44 1011.5
20260906001507 35 150 0.0 4.8 0.00 0.00 0.00 43 1011.6
20260906001005 35 163 0.0 4.8 0.00 0.00 0.00 42 1011.6
20260906000503 35 185 1.6 3.2 0.00 0.00 0.00 42 1011.5
20260906000014 35 252 0.0 4.8 0.00 0.00 0.00 41 1011.5
20260905235507 35 165 0.0 4.8 0.00 0.00 0.00 41 1011.6
20260905235011 35 112 0.0 3.2 0.00 0.00 0.00 40 1011.5
20260905234521 35 140 0.0 3.2 0.00 0.00 0.00 40 1011.3
20260905234008 35 91 0.0 6.4 0.00 0.00 0.00 40 1011.3
20260905233512 36 154 1.6 6.4 0.00 0.00 0.00 40 1011.5
20260905233027 36 208 1.6 4.8 0.00 0.00 0.00 39 1011.6
20260905232514 36 137 1.6 6.4 0.00 0.00 0.00 39 1011.4
20260905232016 36 216 1.6 6.4 0.00 0.00 0.00 39 1011.4